﻿測定場所 (Monitoring sites),日付 (Measurement date),時間 (Measurement time),線量率 最大値 (max) μGy/h,線量率 最小値 (min) μGy/h,線量率 平均値 (average) μGy/h,
新宿 (Shinjuku),2011-04-17,23:00～23:59,0.0781,0.0730,0.0748,
新宿 (Shinjuku),2011-04-17,22:00～22:59,0.0794,0.0725,0.0755,
新宿 (Shinjuku),2011-04-17,21:00～21:59,0.0767,0.0715,0.0749,
新宿 (Shinjuku),2011-04-17,20:00～20:59,0.0777,0.0730,0.0751,
新宿 (Shinjuku),2011-04-17,19:00～19:59,0.0781,0.0712,0.0751,
新宿 (Shinjuku),2011-04-17,18:00～18:59,0.0784,0.0718,0.0754,
新宿 (Shinjuku),2011-04-17,17:00～17:59,0.0783,0.0716,0.0749,
新宿 (Shinjuku),2011-04-17,16:00～16:59,0.0766,0.0714,0.0749,
新宿 (Shinjuku),2011-04-17,15:00～15:59,0.0788,0.0725,0.0757,
新宿 (Shinjuku),2011-04-17,14:00～14:59,0.0777,0.0726,0.0755,
新宿 (Shinjuku),2011-04-17,13:00～13:59,0.0799,0.0724,0.0757,
新宿 (Shinjuku),2011-04-17,12:00～12:59,0.0787,0.0731,0.0756,
新宿 (Shinjuku),2011-04-17,11:00～11:59,0.0782,0.0722,0.0759,
新宿 (Shinjuku),2011-04-17,10:00～10:59,0.0788,0.0733,0.0759,
新宿 (Shinjuku),2011-04-17,09:00～09:59,0.0791,0.0736,0.0761,
新宿 (Shinjuku),2011-04-17,08:00～08:59,0.0800,0.0731,0.0760,
新宿 (Shinjuku),2011-04-17,07:00～07:59,0.0786,0.0728,0.0756,
新宿 (Shinjuku),2011-04-17,06:00～06:59,0.0782,0.0717,0.0747,
新宿 (Shinjuku),2011-04-17,05:00～05:59,0.0778,0.0722,0.0748,
新宿 (Shinjuku),2011-04-17,04:00～04:59,0.0775,0.0704,0.0749,
新宿 (Shinjuku),2011-04-17,03:00～03:59,0.0781,0.0725,0.0747,
新宿 (Shinjuku),2011-04-17,02:00～02:59,0.0770,0.0717,0.0746,
新宿 (Shinjuku),2011-04-17,01:00～01:59,0.0786,0.0719,0.0750,
新宿 (Shinjuku),2011-04-17,00:00～00:59,0.0781,0.0725,0.0752,
新宿 (Shinjuku),2011-04-16,23:00～23:59,0.0781,0.0725,0.0753,
新宿 (Shinjuku),2011-04-16,22:00～22:59,0.0780,0.0725,0.0752,
新宿 (Shinjuku),2011-04-16,21:00～21:59,0.0784,0.0733,0.0758,
新宿 (Shinjuku),2011-04-16,20:00～20:59,0.0796,0.0722,0.0759,
新宿 (Shinjuku),2011-04-16,19:00～19:59,0.0783,0.0730,0.0758,
新宿 (Shinjuku),2011-04-16,18:00～18:59,0.0781,0.0725,0.0758,
新宿 (Shinjuku),2011-04-16,17:00～17:59,0.0791,0.0741,0.0764,
新宿 (Shinjuku),2011-04-16,16:00～16:59,0.0796,0.0739,0.0766,
新宿 (Shinjuku),2011-04-16,15:00～15:59,0.0802,0.0732,0.0763,
新宿 (Shinjuku),2011-04-16,14:00～14:59,0.0795,0.0739,0.0772,
新宿 (Shinjuku),2011-04-16,13:00～13:59,0.0802,0.0736,0.0769,
新宿 (Shinjuku),2011-04-16,12:00～12:59,0.0798,0.0738,0.0770,
新宿 (Shinjuku),2011-04-16,11:00～11:59,0.0795,0.0729,0.0768,
新宿 (Shinjuku),2011-04-16,10:00～10:59,0.0802,0.0742,0.0765,
新宿 (Shinjuku),2011-04-16,09:00～09:59,0.0788,0.0743,0.0768,
新宿 (Shinjuku),2011-04-16,08:00～08:59,0.0788,0.0733,0.0764,
新宿 (Shinjuku),2011-04-16,07:00～07:59,0.0808,0.0728,0.0762,
新宿 (Shinjuku),2011-04-16,06:00～06:59,0.0792,0.0733,0.0757,
新宿 (Shinjuku),2011-04-16,05:00～05:59,0.0777,0.0722,0.0756,
新宿 (Shinjuku),2011-04-16,04:00～04:59,0.0785,0.0733,0.0758,
新宿 (Shinjuku),2011-04-16,03:00～03:59,0.0798,0.0724,0.0757,
新宿 (Shinjuku),2011-04-16,02:00～02:59,0.0787,0.0734,0.0758,
新宿 (Shinjuku),2011-04-16,01:00～01:59,0.0802,0.0734,0.0758,
新宿 (Shinjuku),2011-04-16,00:00～00:59,0.0788,0.0723,0.0758,
新宿 (Shinjuku),2011-04-15,23:00～23:59,0.0781,0.0733,0.0760,
新宿 (Shinjuku),2011-04-15,22:00～22:59,0.0791,0.0726,0.0758,
新宿 (Shinjuku),2011-04-15,21:00～21:59,0.0793,0.0732,0.0759,
新宿 (Shinjuku),2011-04-15,20:00～20:59,0.0784,0.0720,0.0756,
新宿 (Shinjuku),2011-04-15,19:00～19:59,0.0797,0.0736,0.0761,
新宿 (Shinjuku),2011-04-15,18:00～18:59,0.0792,0.0736,0.0760,
新宿 (Shinjuku),2011-04-15,17:00～17:59,0.0780,0.0723,0.0758,
新宿 (Shinjuku),2011-04-15,16:00～16:59,0.0794,0.0735,0.0763,
新宿 (Shinjuku),2011-04-15,15:00～15:59,0.0804,0.0738,0.0763,
新宿 (Shinjuku),2011-04-15,14:00～14:59,0.0795,0.0736,0.0761,
新宿 (Shinjuku),2011-04-15,13:00～13:59,0.0807,0.0732,0.0763,
新宿 (Shinjuku),2011-04-15,12:00～12:59,0.0795,0.0732,0.0767,
新宿 (Shinjuku),2011-04-15,11:00～11:59,0.0805,0.0732,0.0769,
新宿 (Shinjuku),2011-04-15,10:00～10:59,0.0796,0.0740,0.0770,
新宿 (Shinjuku),2011-04-15,09:00～09:59,0.0812,0.0742,0.0772,
新宿 (Shinjuku),2011-04-15,08:00～08:59,0.0816,0.0748,0.0782,
新宿 (Shinjuku),2011-04-15,07:00～07:59,0.0813,0.0742,0.0783,
新宿 (Shinjuku),2011-04-15,06:00～06:59,0.0812,0.0739,0.0776,
新宿 (Shinjuku),2011-04-15,05:00～05:59,0.0801,0.0753,0.0773,
新宿 (Shinjuku),2011-04-15,04:00～04:59,0.0813,0.0748,0.0777,
新宿 (Shinjuku),2011-04-15,03:00～03:59,0.0813,0.0751,0.0778,
新宿 (Shinjuku),2011-04-15,02:00～02:59,0.0798,0.0750,0.0776,
新宿 (Shinjuku),2011-04-15,01:00～01:59,0.0804,0.0731,0.0769,
新宿 (Shinjuku),2011-04-15,00:00～00:59,0.0806,0.0742,0.0767,
新宿 (Shinjuku),2011-04-14,23:00～23:59,0.0802,0.0736,0.0769,
新宿 (Shinjuku),2011-04-14,22:00～22:59,0.0798,0.0736,0.0769,
新宿 (Shinjuku),2011-04-14,21:00～21:59,0.0797,0.0743,0.0771,
新宿 (Shinjuku),2011-04-14,20:00～20:59,0.0804,0.0740,0.0769,
新宿 (Shinjuku),2011-04-14,19:00～19:59,0.0793,0.0742,0.0769,
新宿 (Shinjuku),2011-04-14,18:00～18:59,0.0794,0.0743,0.0767,
新宿 (Shinjuku),2011-04-14,17:00～17:59,0.0792,0.0739,0.0768,
新宿 (Shinjuku),2011-04-14,16:00～16:59,0.0802,0.0747,0.0773,
新宿 (Shinjuku),2011-04-14,15:00～15:59,0.0808,0.0744,0.0777,
新宿 (Shinjuku),2011-04-14,14:00～14:59,0.0807,0.0751,0.0777,
新宿 (Shinjuku),2011-04-14,13:00～13:59,0.0814,0.0750,0.0778,
新宿 (Shinjuku),2011-04-14,12:00～12:59,0.0809,0.0751,0.0775,
新宿 (Shinjuku),2011-04-14,11:00～11:59,0.0812,0.0746,0.0780,
新宿 (Shinjuku),2011-04-14,10:00～10:59,0.0805,0.0750,0.0778,
新宿 (Shinjuku),2011-04-14,09:00～09:59,0.0816,0.0765,0.0788,
新宿 (Shinjuku),2011-04-14,08:00～08:59,0.0819,0.0755,0.0787,
新宿 (Shinjuku),2011-04-14,07:00～07:59,0.0829,0.0756,0.0786,
新宿 (Shinjuku),2011-04-14,06:00～06:59,0.0807,0.0746,0.0776,
新宿 (Shinjuku),2011-04-14,05:00～05:59,0.0805,0.0754,0.0777,
新宿 (Shinjuku),2011-04-14,04:00～04:59,0.0819,0.0751,0.0778,
新宿 (Shinjuku),2011-04-14,03:00～03:59,0.0822,0.0749,0.0775,
新宿 (Shinjuku),2011-04-14,02:00～02:59,0.0802,0.0745,0.0772,
新宿 (Shinjuku),2011-04-14,01:00～01:59,0.0815,0.0751,0.0777,
新宿 (Shinjuku),2011-04-14,00:00～00:59,0.0806,0.0746,0.0776,
新宿 (Shinjuku),2011-04-13,23:00～23:59,0.0802,0.0742,0.0772,
新宿 (Shinjuku),2011-04-13,22:00～22:59,0.0803,0.0737,0.0773,
新宿 (Shinjuku),2011-04-13,21:00～21:59,0.0811,0.0747,0.0775,
新宿 (Shinjuku),2011-04-13,20:00～20:59,0.0808,0.0744,0.0776,
新宿 (Shinjuku),2011-04-13,19:00～19:59,0.0804,0.0739,0.0772,
新宿 (Shinjuku),2011-04-13,18:00～18:59,0.0795,0.0749,0.0771,
新宿 (Shinjuku),2011-04-13,17:00～17:59,0.0802,0.0739,0.0774,
新宿 (Shinjuku),2011-04-13,16:00～16:59,0.0816,0.0757,0.0780,
新宿 (Shinjuku),2011-04-13,15:00～15:59,0.0804,0.0747,0.0781,
新宿 (Shinjuku),2011-04-13,14:00～14:59,0.0816,0.0748,0.0783,
新宿 (Shinjuku),2011-04-13,13:00～13:59,0.0809,0.0753,0.0783,
新宿 (Shinjuku),2011-04-13,12:00～12:59,0.0811,0.0752,0.0782,
新宿 (Shinjuku),2011-04-13,11:00～11:59,0.0812,0.0749,0.0781,
新宿 (Shinjuku),2011-04-13,10:00～10:59,0.0820,0.0751,0.0783,
新宿 (Shinjuku),2011-04-13,09:00～09:59,0.0809,0.0753,0.0783,
新宿 (Shinjuku),2011-04-13,08:00～08:59,0.0818,0.0753,0.0785,
新宿 (Shinjuku),2011-04-13,07:00～07:59,0.0814,0.0761,0.0787,
新宿 (Shinjuku),2011-04-13,06:00～06:59,0.0802,0.0740,0.0777,
新宿 (Shinjuku),2011-04-13,05:00～05:59,0.0805,0.0743,0.0776,
新宿 (Shinjuku),2011-04-13,04:00～04:59,0.0809,0.0740,0.0770,
新宿 (Shinjuku),2011-04-13,03:00～03:59,0.0795,0.0739,0.0772,
新宿 (Shinjuku),2011-04-13,02:00～02:59,0.0797,0.0744,0.0773,
新宿 (Shinjuku),2011-04-13,01:00～01:59,0.0798,0.0732,0.0772,
新宿 (Shinjuku),2011-04-13,00:00～00:59,0.0796,0.0747,0.0771,
新宿 (Shinjuku),2011-04-12,23:00～23:59,0.0795,0.0749,0.0770,
新宿 (Shinjuku),2011-04-12,22:00～22:59,0.0802,0.0744,0.0770,
新宿 (Shinjuku),2011-04-12,21:00～21:59,0.0826,0.0746,0.0772,
新宿 (Shinjuku),2011-04-12,20:00～20:59,0.0793,0.0742,0.0770,
新宿 (Shinjuku),2011-04-12,19:00～19:59,0.0804,0.0746,0.0770,
新宿 (Shinjuku),2011-04-12,18:00～18:59,0.0797,0.0746,0.0772,
新宿 (Shinjuku),2011-04-12,17:00～17:59,0.0823,0.0753,0.0778,
新宿 (Shinjuku),2011-04-12,16:00～16:59,0.0812,0.0749,0.0779,
新宿 (Shinjuku),2011-04-12,15:00～15:59,0.0809,0.0756,0.0782,
新宿 (Shinjuku),2011-04-12,14:00～14:59,0.0813,0.0759,0.0782,
新宿 (Shinjuku),2011-04-12,13:00～13:59,0.0812,0.0745,0.0779,
新宿 (Shinjuku),2011-04-12,12:00～12:59,0.0816,0.0745,0.0781,
新宿 (Shinjuku),2011-04-12,11:00～11:59,0.0800,0.0755,0.0777,
新宿 (Shinjuku),2011-04-12,10:00～10:59,0.0805,0.0755,0.0778,
新宿 (Shinjuku),2011-04-12,09:00～09:59,0.0821,0.0740,0.0775,
新宿 (Shinjuku),2011-04-12,08:00～08:59,0.0795,0.0740,0.0774,
新宿 (Shinjuku),2011-04-12,07:00～07:59,0.0808,0.0748,0.0775,
新宿 (Shinjuku),2011-04-12,06:00～06:59,0.0799,0.0746,0.0771,
新宿 (Shinjuku),2011-04-12,05:00～05:59,0.0803,0.0732,0.0770,
新宿 (Shinjuku),2011-04-12,04:00～04:59,0.0789,0.0742,0.0768,
新宿 (Shinjuku),2011-04-12,03:00～03:59,0.0796,0.0742,0.0769,
新宿 (Shinjuku),2011-04-12,02:00～02:59,0.0805,0.0756,0.0780,
新宿 (Shinjuku),2011-04-12,01:00～01:59,0.0832,0.0759,0.0793,
新宿 (Shinjuku),2011-04-12,00:00～00:59,0.0844,0.0784,0.0819,
新宿 (Shinjuku),2011-04-11,23:00～23:59,0.0829,0.0776,0.0805,
新宿 (Shinjuku),2011-04-11,22:00～22:59,0.0862,0.0792,0.0826,
新宿 (Shinjuku),2011-04-11,21:00～21:59,0.0947,0.0833,0.0896,
新宿 (Shinjuku),2011-04-11,20:00～20:59,0.0944,0.0836,0.0891,
新宿 (Shinjuku),2011-04-11,19:00～19:59,0.0872,0.0801,0.0827,
新宿 (Shinjuku),2011-04-11,18:00～18:59,0.0925,0.0829,0.0864,
新宿 (Shinjuku),2011-04-11,17:00～17:59,0.0961,0.0889,0.0932,
新宿 (Shinjuku),2011-04-11,16:00～16:59,0.0926,0.0805,0.0859,
新宿 (Shinjuku),2011-04-11,15:00～15:59,0.0847,0.0789,0.0816,
新宿 (Shinjuku),2011-04-11,14:00～14:59,0.0842,0.0784,0.0822,
新宿 (Shinjuku),2011-04-11,13:00～13:59,0.0864,0.0797,0.0824,
新宿 (Shinjuku),2011-04-11,12:00～12:59,0.0848,0.0801,0.0828,
新宿 (Shinjuku),2011-04-11,11:00～11:59,0.0852,0.0793,0.0823,
新宿 (Shinjuku),2011-04-11,10:00～10:59,0.0861,0.0798,0.0830,
新宿 (Shinjuku),2011-04-11,09:00～09:59,0.0866,0.0798,0.0833,
新宿 (Shinjuku),2011-04-11,08:00～08:59,0.0862,0.0802,0.0828,
新宿 (Shinjuku),2011-04-11,07:00～07:59,0.0857,0.0795,0.0831,
新宿 (Shinjuku),2011-04-11,06:00～06:59,0.0854,0.0800,0.0823,
新宿 (Shinjuku),2011-04-11,05:00～05:59,0.0871,0.0799,0.0827,
新宿 (Shinjuku),2011-04-11,04:00～04:59,0.0852,0.0787,0.0825,
新宿 (Shinjuku),2011-04-11,03:00～03:59,0.0850,0.0793,0.0823,
新宿 (Shinjuku),2011-04-11,02:00～02:59,0.0847,0.0792,0.0817,
新宿 (Shinjuku),2011-04-11,01:00～01:59,0.0842,0.0789,0.0817,
新宿 (Shinjuku),2011-04-11,00:00～00:59,0.0848,0.0784,0.0817,
